Weather History for Pompano Beach, FL

Change the Weather History Date:

Tuesday, June 25, 2013

  Actual Average Record
Temperature  
Mean Temperature 84 °F -  
Max Temperature 88 °F 90 °F 96 °F (1980)
Min Temperature 81 °F 73 °F 68 °F (1950)
Cooling Degree Days 19    
Growing Degree Days 34 (Base 50)    
Moisture  
Dew Point 76 °F    
Average Humidity 78    
Maximum Humidity 85    
Minimum Humidity 67    
Precipitation  
Precipitation 0.00 in - - ()
Sea Level Pressure  
Sea Level Pressure 30.09 in    
Wind  
Wind Speed 10 mph (ESE)    
Max Wind Speed 18 mph    
Max Gust Speed 23 mph    
Visibility 10 miles    
Events      
Averages and records for this station are not official NWS values.
T = Trace of Precipitation, MM = Missing Value Source: NWS Daily Summary

Daily Weather History Graph

Daily Weather History Graph

Search for Another Location

Airport:

Trip Planner

Search our weather history database for the weather conditions in past years. The results will help you decide how hot, cold, wet, or windy it might be!

Date:

Astronomy

Jun. 25, 2013 Rise Set
Actual Time 6:29 AM EDT 8:16 PM EDT
Civil Twilight 6:03 AM EDT 8:42 PM EDT
Nautical Twilight 5:32 AM EDT 9:14 PM EDT
Astronomical Twilight 4:58 AM EDT 9:47 PM EDT
Moon 10:19 PM EDT (6/25) 8:53 AM EDT (6/25)
Length of Visible Light 14h 39m
Length of Day
13h 46m
Waning Gibbous, 93% of the Moon is Illuminated
Jun 25
Waning Gibbous
Jun 30
Last Quarter
Jul 8
New
Jul 15
First Quarter
Jul 22
Full

Hourly Weather History & Observations

Time (EDT) Temp. Heat Index Dew Point Humidity Pressure Visibility Wind Dir Wind Speed Gust Speed Precip Events Conditions
12:53 AM 82.0 °F 87.9 °F 73.9 °F 76% 30.14 in 10.0 mi ESE 8.1 mph - N/A   Partly Cloudy
1:53 AM 82.0 °F 88.6 °F 75.0 °F 79% 30.13 in 10.0 mi East 9.2 mph - N/A   Partly Cloudy
2:53 AM 81.0 °F 86.7 °F 75.0 °F 82% 30.11 in 10.0 mi East 8.1 mph - N/A   Partly Cloudy
3:53 AM 82.0 °F 87.9 °F 73.9 °F 76% 30.09 in 10.0 mi East 11.5 mph - N/A   Clear
4:53 AM 81.0 °F 86.7 °F 75.0 °F 82% 30.09 in 10.0 mi East 8.1 mph - N/A   Partly Cloudy
5:53 AM 81.0 °F 86.7 °F 75.0 °F 82% 30.08 in 10.0 mi East 10.4 mph - N/A   Scattered Clouds
6:43 AM 82.4 °F 89.5 °F 75.2 °F 79% 30.08 in 10.0 mi East 9.2 mph - N/A   Mostly Cloudy
6:53 AM 82.0 °F 89.4 °F 75.9 °F 82% 30.08 in 10.0 mi ESE 9.2 mph - N/A   Mostly Cloudy
7:13 AM 82.4 °F 89.5 °F 75.2 °F 79% 30.08 in 10.0 mi East 10.4 mph - N/A   Scattered Clouds
7:53 AM 82.9 °F 90.8 °F 75.9 °F 79% 30.09 in 10.0 mi East 11.5 mph - N/A   Scattered Clouds
8:53 AM 84.0 °F 92.6 °F 75.9 °F 76% 30.10 in 10.0 mi East 10.4 mph - N/A   Scattered Clouds
9:53 AM 84.9 °F 94.1 °F 75.9 °F 74% 30.11 in 10.0 mi East 10.4 mph - N/A   Scattered Clouds
10:53 AM 86.0 °F 96.0 °F 75.9 °F 72% 30.12 in 10.0 mi ESE 11.5 mph - N/A   Partly Cloudy
11:53 AM 87.1 °F 98.8 °F 77.0 °F 72% 30.13 in 10.0 mi ESE 12.7 mph - 0.00 in   Scattered Clouds
12:53 PM 87.1 °F 98.8 °F 77.0 °F 72% 30.12 in 10.0 mi ESE 11.5 mph - N/A   Clear
1:53 PM 87.1 °F 96.3 °F 75.0 °F 67% 30.10 in 10.0 mi ESE 11.5 mph - N/A   Clear
2:53 PM 87.1 °F 97.3 °F 75.9 °F 69% 30.10 in 10.0 mi ESE 13.8 mph - N/A   Clear
3:53 PM 86.0 °F 96.0 °F 75.9 °F 72% 30.07 in 10.0 mi SE 17.3 mph - N/A   Scattered Clouds
4:53 PM 86.0 °F 96.9 °F 77.0 °F 74% 30.06 in 10.0 mi ESE 11.5 mph 20.7 mph N/A   Clear
5:53 PM 84.9 °F 96.6 °F 78.1 °F 80% 30.07 in 10.0 mi SE 18.4 mph 23.0 mph N/A   Partly Cloudy
6:53 PM 82.0 °F 89.4 °F 75.9 °F 82% 30.08 in 10.0 mi SE 11.5 mph - N/A   Partly Cloudy
7:53 PM 82.0 °F 88.6 °F 75.0 °F 79% 30.07 in 10.0 mi SE 10.4 mph - N/A   Clear
8:53 PM 82.0 °F 88.6 °F 75.0 °F 79% 30.05 in 10.0 mi SE 9.2 mph - N/A   Clear
9:53 PM 82.0 °F 90.2 °F 77.0 °F 85% 30.08 in 10.0 mi ESE 5.8 mph - N/A   Clear
10:53 PM 82.0 °F 90.2 °F 77.0 °F 85% 30.09 in 10.0 mi SE 8.1 mph - N/A   Partly Cloudy
11:53 PM 82.0 °F 90.2 °F 77.0 °F 85% 30.09 in 10.0 mi ESE 11.5 mph - N/A   Clear